Regional Weather Roundup
Issued by NWS

Home | Current Version | Previous Version | Text Only | Print | Product List | Glossary Off
Versions: 1 2 3 4 5 6 7 8 9 10 11 12 13 14 15 16 17 18 19 20 21 22 23 24 25 26 27 28 29 30 31 32 33 34 35 36 37 38 39 40 41 42 43 44 45 46 47 48 49 50

000
ASUS43 KMKX 310011
RWRWI

WISCONSIN REGIONAL WEATHER ROUNDUP
NATIONAL WEATHER SERVICE MILWAUKEE/SULLIVAN WI
700 PM CDT TUE AUG 30 2016

NOTE: "FAIR" INDICATES FEW OR NO CLOUDS BELOW 12,000 FEET WITH NO
SIGNIFICANT WEATHER AND/OR OBSTRUCTIONS TO VISIBILITY.

WIZ001-002-006>008-014>016-023>028-310100-
NORTHWEST WISCONSIN

CITY           SKY/WX    TMP DP  RH WIND       PRES   REMARKS
SUPERIOR ARPT  CLEAR     71  51  49 NW6       30.13S
6HR MIN TEMP:  71; 6HR MAX TEMP:  77;

ASHLAND        CLEAR     72  56  57 NW6       30.13S
6HR MIN TEMP:  72; 6HR MAX TEMP:  76;

HAYWARD        CLEAR     73  55  53 N3        30.14S
6HR MIN TEMP:  73; 6HR MAX TEMP:  77;

SIREN          CLEAR     73  53  50 N5        30.14F
6HR MIN TEMP:  73; 6HR MAX TEMP:  77;

CUMBERLAND     CLEAR     70  54  56 NW6       30.14F
RICE LAKE      CLEAR     71  56  59 CALM      30.15F
6HR MIN TEMP:  71; 6HR MAX TEMP:  76; 6HR PCP:  0.01;

CHETEK         NOT AVBL
LADYSMITH      CLEAR     72  55  54 NW7       30.14F
6HR MIN TEMP:  72; 6HR MAX TEMP:  78;

EAU CLAIRE     CLEAR     75  58  55 N6        30.11S
6HR MIN TEMP:  75; 6HR MAX TEMP:  81;

MENOMONIE      CLEAR     75  58  55 NW7       30.12S
6HR MIN TEMP:  75; 6HR MAX TEMP:  79;

NEW RICHMOND   CLEAR     72  55  54 N3        30.14F
6HR MIN TEMP:  72; 6HR MAX TEMP:  77;

OSCEOLA        CLEAR     73  57  57 NW3       30.17S
6HR MIN TEMP:  73; 6HR MAX TEMP:  77;

$$

WIZ003>005-009-010-017-018-310100-
NORTH CENTRAL WISCONSIN

CITY           SKY/WX    TMP DP  RH WIND       PRES   REMARKS
MANITOWISH WTR NOT AVBL
ARBOR VITAE    CLEAR     67  49  51 N7        30.13S
6HR MIN TEMP:  67; 6HR MAX TEMP:  77;

WOODRUFF       CLEAR     67  49  51 N7        30.13S
6HR MIN TEMP:  67; 6HR MAX TEMP:  77;

RHINELANDER    CLEAR     71  57  61 NW7       30.12S
6HR MIN TEMP:  71; 6HR MAX TEMP:  77;

EAGLE RIVER    CLEAR     68  51  54 NW5       30.12S
6HR MIN TEMP:  68; 6HR MAX TEMP:  77;

LAND O LAKES   CLEAR     67  50  53 N10       30.14R
6HR MIN TEMP:  67; 6HR MAX TEMP:  77;

PHILLIPS       CLEAR     71  58  63 CALM      30.12S
6HR MIN TEMP:  71; 6HR MAX TEMP:  75;

TOMAHAWK       CLEAR     71  56  58 NW6       30.12S
6HR MIN TEMP:  71; 6HR MAX TEMP:  77;

MEDFORD        CLEAR     70  60  69 NW6       30.11F
6HR MIN TEMP:  70; 6HR MAX TEMP:  77;

MERRILL        CLEAR     74  60  63 NW5       30.10F
6HR MIN TEMP:  74; 6HR MAX TEMP:  80;

$$

WIZ029-030-035-036-043>047-310100-
CENTRAL WISCONSIN

CITY           SKY/WX    TMP DP  RH WIND       PRES   REMARKS
WAUSAU         PTCLDY    75  60  59 NW9       30.07F
6HR MIN TEMP:  75; 6HR MAX TEMP:  83;

MOSINEE        CLEAR     73  64  73 NW6       30.09F
MARSHFIELD     CLEAR     74  61  63 NW8       30.09F
6HR MIN TEMP:  74; 6HR MAX TEMP:  83;

STEVENS POINT  PTCLDY    74  62  65 CALM      30.07F
6HR MIN TEMP:  74; 6HR MAX TEMP:  82;

WAUPACA        CLEAR     82  65  56 W7        30.04F HX  83
6HR MIN TEMP:  82; 6HR MAX TEMP:  87;

WAUTOMA        PTCLDY    79  67  66 W7        30.05F HX  81
6HR MIN TEMP:  79; 6HR MAX TEMP:  85; 6HR PCP:  0.02;

WISC RAPIDS    CLEAR     76  64  66 N7        30.08F
6HR MIN TEMP:  76; 6HR MAX TEMP:  85;

CAMP DOUGLAS   PTCLDY    77  70  78 W6        30.06F
$$

WIZ011>013-019>022-031-037>040-048>050-310100-
NORTHEAST WISCONSIN

CITY           SKY/WX    TMP DP  RH WIND       PRES   REMARKS
ANTIGO         PTCLDY    71  58  62 N7        30.09F
6HR MIN TEMP:  71; 6HR MAX TEMP:  80;

SHAWANO        CLOUDY    79  65  62 NW8       30.05S HX  81
6HR MIN TEMP:  79; 6HR MAX TEMP:  87;

OCONTO         NOT AVBL
STURGEON BAY   CLOUDY    77  69  76 N3        30.02F
6HR MIN TEMP:  76; 6HR MAX TEMP:  84; 6HR PCP: TRACE;

GREEN BAY      CLOUDY    78  69  73 W6        30.01F HX  80
6HR MIN TEMP:  78; 6HR MAX TEMP:  86;

MANITOWOC      PTCLDY    80  68  66 W5        30.01F HX  83
6HR MIN TEMP:  77; 6HR MAX TEMP:  83;

APPLETON       MOCLDY    81  61  50 W6        30.02F HX  81
CLINTONVILLE   PTCLDY    79  63  57 N7        30.03F HX  80
OSHKOSH        PTCLDY    79  66  64 W3        30.03F HX  81
6HR MIN TEMP:  79; 6HR MAX TEMP:  85;

$$

WIZ032>034-041-042-053>061-310100-
SOUTHWEST WISCONSIN

CITY           SKY/WX    TMP DP  RH WIND       PRES   REMARKS
LA CROSSE      PTCLDY    77  66  68 NW9       30.07F
6HR MIN TEMP:  77; 6HR MAX TEMP:  84;

SPARTA         PTCLDY    76  65  69 NW6       30.09S
6HR MIN TEMP:  76; 6HR MAX TEMP:  81;

VIROQUA        PTCLDY    75  67  75 NW5       30.10F
6HR MIN TEMP:  75; 6HR MAX TEMP:  82;

BOSCOBEL       MOCLDY    78  69  73 NW3       30.07F HX  80
6HR MIN TEMP:  78; 6HR MAX TEMP:  86;

PRAIRIE DU CHI CLOUDY    78  65  65 NW6       30.07F HX  80
6HR MIN TEMP:  78; 6HR MAX TEMP:  82;

PLATTEVILLE    MOCLDY    76  73  87 NW3       30.08F
6HR MIN TEMP:  76; 6HR MAX TEMP:  83; 6HR PCP:  0.02;

$$

WIZ056-057-062-063-064-067-068-310100-
SOUTH CENTRAL WISCONSIN

CITY           SKY/WX    TMP DP  RH WIND       PRES   REMARKS
REEDSBURG      NOT AVBL
BARABOO/DELLS  MOCLDY    75  65  70 NW3       30.07S
6HR MIN TEMP:  75; 6HR MAX TEMP:  83;

LONE ROCK      CLOUDY    77  70  79 W5        30.06F
6HR MIN TEMP:  77; 6HR MAX TEMP:  84;

MINERAL POINT  MOCLDY    77  72  83 NW3       30.08F
MADISON        MOCLDY    76  69  79 W3        30.04F
6HR MIN TEMP:  76; 6HR MAX TEMP:  84;

MIDDLETON      MOCLDY    76  72  85 CALM      30.06F
6HR MIN TEMP:  76; 6HR MAX TEMP:  84;

WATERTOWN      PTCLDY    74  72  91 SW6       30.04F
6HR MIN TEMP:  73; 6HR MAX TEMP:  80;

MONROE         CLOUDY    72  68  88 W3        30.06F
JANESVILLE     MOCLDY    72  72 100 CALM      30.05F
$$

WIZ051-052-058>065-066-070>072-310100-
SOUTHEAST WISCONSIN

CITY           SKY/WX    TMP DP  RH WIND       PRES   REMARKS
MILWAUKEE      CLOUDY    75  68  78 W8        30.02F
6HR MIN TEMP:  69; 6HR MAX TEMP:  85; 6HR PCP:  2.08;

WAUKESHA       MOCLDY    72  68  88 W7        30.05F
MILWAUKEE/TIMM CLEAR     73  66  78 W6        30.04F
RACINE         PTCLDY    73  69  87 W6        30.04F
6HR MIN TEMP:  70; 6HR MAX TEMP:  77; 6HR PCP:  0.31;

BURLINGTON     CLOUDY    70  68  93 CALM      30.04F
6HR MIN TEMP:  68; 6HR MAX TEMP:  83; 6HR PCP:  0.97;

KENOSHA        PTCLDY    72  69  90 W5        30.04F
6HR MIN TEMP:  69; 6HR MAX TEMP:  84; 6HR PCP:  1.05;

FOND DU LAC    MOCLDY    79  66  64 W7        30.03F HX  81
6HR MIN TEMP:  79; 6HR MAX TEMP:  85;

SHEBOYGAN      MOCLDY    76  67  73 W3        30.02F
6HR MIN TEMP:  76; 6HR MAX TEMP:  84;

WEST BEND      PTCLDY    73  68  83 W5        30.03F
JUNEAU         CLOUDY    77  66  68 W3        30.05F
6HR MIN TEMP:  77; 6HR MAX TEMP:  83;

$$

LSZ147-162-310100-
LAKE SUPERIOR

STATION/POSITION TIME  TEMP    WIND        PRES    WAVE
                       AIR SEA DIR/SP/G            HT/PER
                 (UTC) (F)     (DEG/KT/KT) (MB)    (FT/S)
W MID LAKE BUOY  2350   68 68  250/ 10/ 12 1018.7F   1/ 3
DEVILS ISLAND    0000   69     250/  8/  9 1019.3F
PORT WING        2220   75     260/  6/  9 1020.3S
SAXON HARBOR     2300   75      CALM  /  1 1020.0
$$

LMZ867-665-643>646-310100-
LAKE MICHIGAN

STATION/POSITION TIME  TEMP    WIND        PRES    WAVE
                       AIR SEA DIR/SP/G            HT/PER
                 (UTC) (F)     (DEG/KT/KT) (MB)    (FT/S)
CHAMBERS ISLAND  2300   78     330/  3/  4 1016.3R
S GREEN BAY BUOY 2330   78 76  320/  6/  8 1016.0F
N MID LAKE BUOY  2350   73 72  340/ 10/ 12 1015.9S   1
NORTHPORT PIER   2300   76     300/  2/  C1F1C2F2C3F3C4F4C5F5C6F6C7F7C8M1C9M2Ca!



USA.gov is the U.S. government's official web portal to all federal, state and local government web resources and services.